This is the latest recevied weather packets stored in our database for station/object HB9CEY-10. If no packets are shown the sender has not sent any weather packets the latest 10 day(s).
| Time | Temp. | Humidity | Pressure | Rain* | Wind** | Luminosity | Snow |
|---|---|---|---|---|---|---|---|
| 1776953582 | 15.56° C | 38% | 1024.4 hPa | - | - | - | - |
| 1776952682 | 15.56° C | 38% | 1024.6 hPa | - | - | - | - |
| 1776951782 | 15.56° C | 38% | 1024.9 hPa | - | - | - | - |
| 1776950882 | 15.56° C | 38% | 1025 hPa | - | - | - | - |
| 1776949982 | 15.56° C | 40% | 1025.1 hPa | - | - | - | - |
| 1776949082 | 15.56° C | 39% | 1025.4 hPa | - | - | - | - |
| 1776948181 | 15.56° C | 40% | 1025.4 hPa | - | - | - | - |
| 1776947281 | 15.56° C | 41% | 1025.4 hPa | - | - | - | - |
| 1776946381 | 15° C | 42% | 1025.6 hPa | - | - | - | - |
| 1776945481 | 15° C | 42% | 1025.7 hPa | - | - | - | - |
| 1776944581 | 15° C | 42% | 1025.9 hPa | - | - | - | - |
| 1776943681 | 15° C | 43% | 1025.9 hPa | - | - | - | - |
| 1776942781 | 15° C | 42% | 1026.1 hPa | - | - | - | - |
| 1776941881 | 15° C | 41% | 1026.3 hPa | - | - | - | - |
| 1776940981 | 15° C | 40% | 1026.4 hPa | - | - | - | - |
| 1776940081 | 14.44° C | 38% | 1026.5 hPa | - | - | - | - |
| 1776939181 | 14.44° C | 33% | 1026.7 hPa | - | - | - | - |
| 1776938281 | 14.44° C | 33% | 1026.9 hPa | - | - | - | - |
| 1776937381 | 13.89° C | 35% | 1026.9 hPa | - | - | - | - |
| 1776936481 | 13.33° C | 36% | 1026.9 hPa | - | - | - | - |
| 1776935581 | 12.78° C | 37% | 1026.9 hPa | - | - | - | - |
| 1776934681 | 12.78° C | 37% | 1026.8 hPa | - | - | - | - |
| 1776933781 | 12.78° C | 38% | 1026.9 hPa | - | - | - | - |
| 1776932881 | 12.78° C | 38% | 1026.9 hPa | - | - | - | - |
| 1776931981 | 13.33° C | 37% | 1026.9 hPa | - | - | - | - |
* Rain since midnight (hover to see other rain measurements)
** Current wind speed in m/s (hover to see current wind gust speed)